TimePST,TemperatureF,Dew PointF,Humidity,Sea Level PressureIn,VisibilityMPH,Wind Direction,Wind SpeedMPH,Gust SpeedMPH,PrecipitationIn,Events,Conditions,WindDirDegrees,DateUTC
12:15 AM,46.4,46.4,100,30.22,2.5,Calm,Calm,-,N/A,,Overcast,0,2013-11-08 08:15:00
12:35 AM,46.4,46.4,100,30.22,2.0,SSE,5.8,-,N/A,,Overcast,150,2013-11-08 08:35:00
12:55 AM,46.4,46.4,100,30.22,0.8,SSE,4.6,-,N/A,,Overcast,160,2013-11-08 08:55:00
1:15 AM,44.6,44.6,100,30.21,1.2,SSE,5.8,-,N/A,,Overcast,160,2013-11-08 09:15:00
1:35 AM,46.4,46.4,100,30.22,10.0,SSE,6.9,-,N/A,,Partly Cloudy,150,2013-11-08 09:35:00
1:55 AM,46.4,44.6,93,30.22,10.0,SSE,3.5,-,N/A,,Clear,160,2013-11-08 09:55:00
2:15 AM,46.4,46.4,100,30.22,10.0,SSE,4.6,-,N/A,,Mostly Cloudy,150,2013-11-08 10:15:00
2:35 AM,46.4,46.4,100,30.22,10.0,SSE,4.6,-,N/A,,Overcast,150,2013-11-08 10:35:00
2:55 AM,46.4,46.4,100,30.22,5.0,SSE,6.9,-,N/A,,Overcast,160,2013-11-08 10:55:00
3:15 AM,46.4,46.4,100,30.22,5.0,SSE,6.9,-,N/A,,Overcast,150,2013-11-08 11:15:00
3:35 AM,46.4,46.4,100,30.23,9.0,South,6.9,-,N/A,,Mostly Cloudy,170,2013-11-08 11:35:00
3:55 AM,46.4,44.6,93,30.22,4.0,SSE,6.9,-,N/A,,Mostly Cloudy,160,2013-11-08 11:55:00
4:15 AM,44.6,44.6,100,30.22,9.0,SSE,6.9,-,N/A,,Overcast,160,2013-11-08 12:15:00
4:35 AM,46.4,46.4,100,30.22,10.0,SSE,6.9,-,N/A,,Overcast,160,2013-11-08 12:35:00
4:55 AM,46.4,46.4,100,30.22,10.0,SSE,8.1,-,N/A,,Overcast,150,2013-11-08 12:55:00
5:15 AM,46.4,46.4,100,30.23,10.0,SSE,6.9,-,N/A,,Overcast,160,2013-11-08 13:15:00
5:35 AM,46.4,46.4,100,30.23,10.0,SSE,6.9,-,N/A,,Mostly Cloudy,150,2013-11-08 13:35:00
5:55 AM,46.4,46.4,100,30.22,10.0,SSE,8.1,-,N/A,,Overcast,150,2013-11-08 13:55:00
6:15 AM,46.4,46.4,100,30.22,10.0,SSE,8.1,-,N/A,,Overcast,150,2013-11-08 14:15:00
6:35 AM,46.4,46.4,100,30.22,10.0,SSE,8.1,-,N/A,,Overcast,150,2013-11-08 14:35:00
6:55 AM,46.4,46.4,100,30.23,10.0,SSE,5.8,-,N/A,,Overcast,160,2013-11-08 14:55:00
7:15 AM,46.4,46.4,100,30.22,10.0,SSE,6.9,-,N/A,,Overcast,150,2013-11-08 15:15:00
7:35 AM,46.4,46.4,100,30.22,10.0,SSE,8.1,-,N/A,,Overcast,160,2013-11-08 15:35:00
7:55 AM,46.4,46.4,100,30.22,10.0,SE,9.2,-,N/A,,Overcast,140,2013-11-08 15:55:00
8:15 AM,46.4,46.4,100,30.23,10.0,SSE,6.9,-,N/A,,Overcast,150,2013-11-08 16:15:00
8:35 AM,48.2,48.2,100,30.23,10.0,SSE,5.8,-,N/A,,Overcast,160,2013-11-08 16:35:00
8:55 AM,48.2,48.2,100,30.22,10.0,SSE,9.2,-,N/A,,Overcast,150,2013-11-08 16:55:00
9:15 AM,48.2,48.2,100,30.22,10.0,SE,8.1,-,N/A,,Scattered Clouds,140,2013-11-08 17:15:00
9:35 AM,50.0,48.2,94,30.22,10.0,SSE,5.8,-,N/A,,Clear,150,2013-11-08 17:35:00
9:55 AM,50.0,48.2,94,30.22,10.0,SSE,3.5,-,N/A,,Clear,150,2013-11-08 17:55:00
10:15 AM,51.8,48.2,88,30.22,10.0,Calm,Calm,-,N/A,,Clear,0,2013-11-08 18:15:00
10:35 AM,53.6,48.2,82,30.22,10.0,Calm,Calm,-,N/A,,Clear,0,2013-11-08 18:35:00
10:55 AM,53.6,48.2,82,30.21,10.0,Calm,Calm,-,N/A,,Clear,0,2013-11-08 18:55:00
11:15 AM,53.6,50.0,88,30.21,10.0,Calm,Calm,-,N/A,,Clear,0,2013-11-08 19:15:00
11:35 AM,53.6,50.0,88,30.20,10.0,Calm,Calm,-,N/A,,Partly Cloudy,0,2013-11-08 19:35:00
11:55 AM,55.4,48.2,77,30.19,10.0,NW,3.5,-,N/A,,Scattered Clouds,320,2013-11-08 19:55:00
12:15 PM,55.4,48.2,77,30.18,10.0,West,3.5,-,N/A,,Scattered Clouds,280,2013-11-08 20:15:00
12:35 PM,55.4,48.2,77,30.18,10.0,NW,6.9,-,N/A,,Scattered Clouds,320,2013-11-08 20:35:00
12:55 PM,55.4,48.2,77,30.17,10.0,NNW,9.2,-,N/A,,Scattered Clouds,340,2013-11-08 20:55:00
1:15 PM,55.4,48.2,77,30.16,10.0,NNW,10.4,-,N/A,,Partly Cloudy,330,2013-11-08 21:15:00
1:35 PM,55.4,48.2,77,30.16,10.0,North,9.2,-,N/A,,Partly Cloudy,350,2013-11-08 21:35:00
1:55 PM,55.4,48.2,77,30.15,10.0,North,13.8,-,N/A,,Partly Cloudy,350,2013-11-08 21:55:00
2:15 PM,55.4,48.2,77,30.15,10.0,North,10.4,-,N/A,,Scattered Clouds,350,2013-11-08 22:15:00
2:35 PM,55.4,48.2,77,30.15,10.0,North,10.4,-,N/A,,Partly Cloudy,350,2013-11-08 22:35:00
2:55 PM,55.4,50.0,82,30.14,10.0,North,11.5,-,N/A,,Clear,350,2013-11-08 22:55:00
3:15 PM,55.4,50.0,82,30.14,10.0,North,11.5,-,N/A,,Clear,360,2013-11-08 23:15:00
3:35 PM,55.4,50.0,82,30.14,10.0,North,12.7,-,N/A,,Scattered Clouds,360,2013-11-08 23:35:00
3:55 PM,53.6,50.0,88,30.14,10.0,North,10.4,-,N/A,,Mostly Cloudy,360,2013-11-08 23:55:00
4:15 PM,53.6,50.0,88,30.13,10.0,North,12.7,-,N/A,,Mostly Cloudy,10,2013-11-09 00:15:00
4:35 PM,53.6,50.0,88,30.13,10.0,North,11.5,-,N/A,,Overcast,10,2013-11-09 00:35:00
4:55 PM,53.6,50.0,88,30.12,10.0,North,12.7,-,N/A,,Overcast,10,2013-11-09 00:55:00
5:15 PM,51.8,50.0,94,30.13,10.0,North,11.5,-,N/A,,Overcast,10,2013-11-09 01:15:00
5:35 PM,51.8,50.0,94,30.12,10.0,NNE,11.5,-,N/A,,Mostly Cloudy,20,2013-11-09 01:35:00
5:55 PM,51.8,50.0,94,30.12,10.0,NNE,9.2,-,N/A,,Clear,30,2013-11-09 01:55:00
6:15 PM,51.8,50.0,94,30.12,10.0,NNE,6.9,-,N/A,,Clear,20,2013-11-09 02:15:00
6:35 PM,50.0,50.0,100,30.13,10.0,North,6.9,-,N/A,,Clear,10,2013-11-09 02:35:00
6:55 PM,50.0,48.2,94,30.13,10.0,NNE,4.6,-,N/A,,Clear,20,2013-11-09 02:55:00
7:15 PM,48.2,46.4,93,30.13,10.0,NE,3.5,-,N/A,,Clear,40,2013-11-09 03:15:00
7:35 PM,48.2,48.2,100,30.12,10.0,NE,4.6,-,N/A,,Clear,40,2013-11-09 03:35:00
7:55 PM,46.4,46.4,100,30.12,10.0,Calm,Calm,-,N/A,,Clear,0,2013-11-09 03:55:00
8:15 PM,46.4,44.6,93,30.12,10.0,Calm,Calm,-,N/A,,Clear,0,2013-11-09 04:15:00
8:35 PM,46.4,46.4,100,30.12,9.0,Calm,Calm,-,N/A,,Clear,0,2013-11-09 04:35:00
8:55 PM,46.4,46.4,100,30.12,10.0,Calm,Calm,-,N/A,,Clear,0,2013-11-09 04:55:00
9:15 PM,44.6,44.6,100,30.12,10.0,Calm,Calm,-,N/A,,Clear,0,2013-11-09 05:15:00
9:35 PM,44.6,42.8,93,30.11,10.0,Calm,Calm,-,N/A,,Clear,0,2013-11-09 05:35:00
9:55 PM,42.8,42.8,100,30.11,10.0,SSE,4.6,-,N/A,,Clear,150,2013-11-09 05:55:00
10:15 PM,44.6,44.6,100,30.11,9.0,ESE,3.5,-,N/A,,Clear,120,2013-11-09 06:15:00
10:35 PM,44.6,44.6,100,30.10,8.0,Calm,Calm,-,N/A,,Clear,0,2013-11-09 06:35:00
10:55 PM,44.6,42.8,93,30.10,5.0,Calm,Calm,-,N/A,,Clear,0,2013-11-09 06:55:00
11:15 PM,44.6,42.8,93,30.10,6.0,Calm,Calm,-,N/A,,Clear,0,2013-11-09 07:15:00
11:35 PM,42.8,42.8,100,30.10,8.0,NE,4.6,-,N/A,,Clear,40,2013-11-09 07:35:00
11:55 PM,42.8,41.0,93,30.09,2.0,Calm,Calm,-,N/A,,Scattered Clouds,0,2013-11-09 07:55:00